Weather History for West Palm Beach, FL

Change the Weather History Date:

Monday, December 3, 2012

  Actual Average Record
Temperature  
Mean Temperature 76 °F 70 °F  
Max Temperature 79 °F 78 °F 87 °F (1948)
Min Temperature 72 °F 62 °F 43 °F (1903)
Degree Days  
Heating Degree Days 0 1  
Month to date heating degree days 0 3  
Since 1 July heating degree days 12 15  
Cooling Degree Days 11 6  
Month to date cooling degree days 34 18  
Year to date cooling degree days 4058 3884  
Growing Degree Days 26 (Base 50)    
Moisture  
Dew Point 58 °F    
Average Humidity 56    
Maximum Humidity 68    
Minimum Humidity 44    
Precipitation  
Precipitation 0.00 in 0.11 in 1.04 in (1905)
Month to date precipitation 0.02 0.34  
Year to date precipitation 77.62 59.29  
Snow  
Snow 0.00 in - - ()
Month to date snowfall 0.0  
Since 1 July snowfall 0.0  
Snow Depth 0.00 in    
Sea Level Pressure  
Sea Level Pressure 30.20 in    
Wind  
Wind Speed 12 mph (ENE)    
Max Wind Speed 18 mph    
Max Gust Speed 24 mph    
Visibility 10 miles    
Events      
T = Trace of Precipitation, MM = Missing Value Source: NWS Daily Summary

Daily Weather History Graph

Daily Weather History Graph

Search for Another Location

Airport:

Trip Planner

Search our weather history database for the weather conditions in past years. The results will help you decide how hot, cold, wet, or windy it might be!

Date:

Astronomy

Dec. 03, 2012 Rise Set
Actual Time 6:53 AM EST 5:27 PM EST
Civil Twilight 6:28 AM EST 5:52 PM EST
Nautical Twilight 5:59 AM EST 6:21 PM EST
Astronomical Twilight 5:31 AM EST 6:49 PM EST
Moon 9:57 PM EST (12/3) 10:28 AM EST (12/3)
Length of Visible Light 11h 23m
Length of Day
10h 33m
Waning Gibbous, 78% of the Moon is Illuminated
Dec 3
Waning Gibbous
Dec 6
Last Quarter
Dec 13
New
Dec 20
First Quarter
Dec 28
Full

Hourly Weather History & Observations

Time (EST) Temp. Dew Point Humidity Pressure Visibility Wind Dir Wind Speed Gust Speed Precip Events Conditions
12:53 AM 73.9 °F 62.1 °F 66% 30.19 in 10.0 mi East 13.8 mph - N/A   Scattered Clouds
1:53 AM 73.0 °F 61.0 °F 66% 30.19 in 10.0 mi East 12.7 mph - N/A   Partly Cloudy
2:53 AM 73.0 °F 61.0 °F 66% 30.18 in 10.0 mi East 10.4 mph - N/A   Scattered Clouds
3:53 AM 73.0 °F 62.1 °F 68% 30.17 in 10.0 mi East 9.2 mph - N/A   Scattered Clouds
4:53 AM 72.0 °F 60.1 °F 66% 30.18 in 10.0 mi East 8.1 mph - N/A   Scattered Clouds
5:53 AM 73.0 °F 59.0 °F 61% 30.19 in 10.0 mi ENE 9.2 mph - N/A   Partly Cloudy
6:53 AM 72.0 °F 59.0 °F 64% 30.21 in 10.0 mi East 9.2 mph - N/A   Scattered Clouds
7:53 AM 73.0 °F 61.0 °F 66% 30.22 in 10.0 mi East 10.4 mph - N/A   Scattered Clouds
8:53 AM 75.9 °F 61.0 °F 60% 30.23 in 10.0 mi East 15.0 mph - N/A   Mostly Cloudy
9:53 AM 77.0 °F 60.1 °F 56% 30.25 in 10.0 mi East 13.8 mph - N/A   Scattered Clouds
10:53 AM 78.1 °F 60.1 °F 54% 30.24 in 10.0 mi ENE 15.0 mph - N/A   Scattered Clouds
11:53 AM 78.1 °F 59.0 °F 52% 30.22 in 10.0 mi ENE 12.7 mph - N/A   Scattered Clouds
12:53 PM 78.1 °F 57.0 °F 48% 30.19 in 10.0 mi NE 12.7 mph - N/A   Scattered Clouds
1:53 PM 78.1 °F 55.9 °F 46% 30.18 in 10.0 mi ENE 12.7 mph 23.0 mph N/A   Scattered Clouds
2:53 PM 77.0 °F 55.0 °F 47% 30.18 in 10.0 mi NE 11.5 mph - N/A   Scattered Clouds
3:53 PM 75.9 °F 54.0 °F 46% 30.18 in 10.0 mi NE 10.4 mph 19.6 mph N/A   Scattered Clouds
4:53 PM 75.0 °F 53.1 °F 46% 30.18 in 10.0 mi ENE 10.4 mph - N/A   Partly Cloudy
5:53 PM 73.9 °F 54.0 °F 50% 30.19 in 10.0 mi ENE 10.4 mph - N/A   Partly Cloudy
6:53 PM 73.0 °F 50.0 °F 44% 30.21 in 10.0 mi East 9.2 mph - N/A   Partly Cloudy
7:53 PM 73.0 °F 53.1 °F 49% 30.21 in 10.0 mi East 12.7 mph - N/A   Partly Cloudy
8:53 PM 73.0 °F 57.0 °F 57% 30.21 in 10.0 mi East 10.4 mph - N/A   Partly Cloudy
9:53 PM 73.0 °F 59.0 °F 61% 30.21 in 10.0 mi East 11.5 mph - N/A   Scattered Clouds
10:53 PM 73.0 °F 57.9 °F 59% 30.21 in 10.0 mi East 17.3 mph - N/A   Scattered Clouds
11:53 PM 73.0 °F 55.9 °F 55% 30.20 in 10.0 mi East 16.1 mph - N/A   Scattered Clouds